QPF
0.00 0.00 0.00 0.00 0.00 0.00 0.00 0.00 0.00 0.00 0.00 0.00 0.00 0.00 0.00 0.00 0.00 0.00 0.00 0.00 0.00 0.00 0.00 0.00 0.00 0.00 0.00 0.00 0.00 0.00 0.00 0.00 0.00 0.00 0.00 0.00 0.00 0.00 0.00 0.00 0.01 0.01 0.00
0.00 0.00 0.00 0.00 0.00 0.00 0.00 0.00 0.00 0.00 0.00 0.00 0.00 0.00 0.00 0.00 0.00 0.00 0.00 0.00 0.00 0.00 0.00 0.00 0.00 0.00 0.00 0.00 0.00 0.00 0.00 0.00 0.00 0.00 0.00 0.00 0.00 0.00 0.00 0.00 0.00 0.00 0.00
0.00 0.00 0.00 0.00 0.00 0.00 0.00 0.00 0.00 0.00 0.00 0.00 0.00 0.00 0.00 0.00 0.00 0.00 0.00 0.00 0.00 0.00 0.00 0.00 0.00 0.00 0.00 0.00 0.00 0.00 0.00 0.00 0.00 0.00 0.00 0.00 0.00 0.00 0.01 0.00 0.00 0.00 0.00
0.00 0.00 0.00 0.00 0.00 0.00 0.00 0.00 0.01 0.00 0.00 0.00 0.00 0.00 0.00 0.00 0.00 0.01 0.00 0.00 0.00 0.00 0.00 0.00 0.00 0.00 0.00 0.00 0.00 0.00 0.00 0.00 0.00 0.00 0.00 0.00 0.00 0.01 0.02 0.02 0.01 0.00 0.00
0.00 0.00 0.00 0.00 0.01 0.00 0.00 0.00 0.00 0.00 0.00 0.00 0.00 0.00 0.00 0.00 0.00 0.01 0.00 0.00 0.00 0.00 0.00 0.00 0.00 0.00 0.00 0.00 0.00 0.00 0.00 0.00 0.00 0.00 0.00 0.00 0.00 0.01 0.01 0.00 0.01 0.02 0.03
0.00 0.00 0.00 0.00 0.01 0.00 0.00 0.00 0.00 0.00 0.00 0.00 0.00 0.00 0.00 0.00 0.00 0.01 0.00 0.00 0.00 0.00 0.00 0.00 0.00 0.00 0.00 0.00 0.00 0.00 0.00 0.00 0.00 0.00 0.00 0.00 0.02 0.02 0.01 0.00 0.00 0.00 0.00
0.00 0.00 0.00 0.01 0.00 0.00 0.00 0.00 0.00 0.00 0.00 0.00 0.00 0.01 0.01 0.00 0.00 0.01 0.00 0.00 0.00 0.00 0.00 0.00 0.00 0.00 0.00 0.00 0.00 0.00 0.00 0.00 0.00 0.00 0.00 0.00 0.00 0.00 0.00 0.00 0.00 0.00 0.00
0.00 0.00 0.00 0.00 0.00 0.00 0.00 0.00 0.00 0.00 0.00 0.00 0.00 0.01 0.01 0.01 0.01 0.00 0.00 0.00 0.00 0.00 0.00 0.00 0.00 0.00 0.00 0.00 0.00 0.00 0.00 0.00 0.00 0.00 0.00 0.00 0.00 0.00 0.00 0.00 0.00 0.00 0.00
0.00 0.00 0.01 0.00 0.00 0.00 0.00 0.00 0.00 0.00 0.00 0.00 0.00 0.00 0.00 0.00 0.01 0.01 0.00 0.00 0.00 0.00 0.00 0.00 0.00 0.00 0.00 0.00 0.00 0.00 0.00 0.00 0.00 0.00 0.00 0.00 0.00 0.00 0.00 0.00 0.00 0.00 0.00
0.00 0.00 0.00 0.00 0.00 0.00 0.00 0.00 0.00 0.00 0.00 0.00 0.00 0.00 0.00 0.00 0.00 0.00 0.00 0.00 0.00 0.00 0.00 0.00 0.00 0.00 0.00 0.00 0.00 0.00 0.00 0.00 0.00 0.00 0.00 0.00 0.00 0.00 0.00 0.00 0.00 0.00 0.00
0.00 0.00 0.00 0.00 0.00 0.00 0.00 0.00 0.00 0.00 0.00 0.00 0.00 0.00 0.00 0.00 0.00 0.00 0.00 0.00 0.00 0.00 0.00 0.00 0.00 0.00 0.00 0.00 0.00 0.00 0.00 0.00 0.00 0.00 0.00 0.00 0.00 0.00 0.00 0.00 0.00 0.00 0.00
0.00 0.00 0.00 0.00 0.00 0.00 0.00 0.00 0.00 0.00 0.00 0.00 0.00 0.00 0.00 0.00 0.00 0.00 0.00 0.00 0.00 0.00 0.00 0.00 0.00 0.00 0.00 0.00 0.00 0.00 0.00 0.00 0.00 0.00 0.00 0.00 0.00 0.00 0.00 0.00 0.00 0.00 0.00
0.00 0.00 0.00 0.00 0.00 0.00 0.00 0.00 0.00 0.00 0.00 0.00 0.00 0.00 0.00 0.00 0.00 0.00 0.00 0.00 0.00 0.00 0.00 0.00 0.00 0.00 0.00 0.00 0.00 0.00 0.00 0.00 0.00 0.00 0.00 0.00 0.00 0.00 0.00 0.00 0.00 0.00 0.00
0.01 0.00 0.00 0.00 0.00 0.00 0.00 0.00 0.00 0.00 0.00 0.00 0.00 0.00 0.00 0.00 0.00 0.00 0.00 0.00 0.00 0.00 0.00 0.00 0.00 0.00 0.00 0.00 0.00 0.00 0.00 0.00 0.00 0.00 0.00 0.00 0.00 0.00 0.00 0.00 0.00 0.00 0.00
0.02 0.00 0.00 0.00 0.00 0.00 0.00 0.00 0.00 0.00 0.00 0.00 0.00 0.00 0.00 0.00 0.00 0.00 0.00 0.00 0.00 0.00 0.00 0.00 0.00 0.00 0.00 0.00 0.00 0.00 0.00 0.00 0.00 0.00 0.00 0.00 0.00 0.00 0.00 0.00 0.00 0.00 0.00
0.07 0.00 0.00 0.00 0.00 0.00 0.00 0.00 0.00 0.00 0.00 0.00 0.00 0.00 0.00 0.00 0.00 0.00 0.00 0.00 0.00 0.00 0.00 0.00 0.00 0.00 0.00 0.00 0.00 0.00 0.00 0.00 0.00 0.00 0.00 0.00 0.00 0.00 0.00 0.00 0.00 0.00 0.00
0.07 0.01 0.00 0.00 0.00 0.00 0.00 0.00 0.00 0.00 0.00 0.00 0.00 0.00 0.00 0.00 0.00 0.00 0.00 0.00 0.00 0.00 0.00 0.00 0.00 0.00 0.00 0.00 0.00 0.00 0.00 0.00 0.00 0.00 0.00 0.00 0.00 0.00 0.00 0.00 0.00 0.00 0.00
0.03 0.00 0.00 0.00 0.00 0.00 0.00 0.00 0.00 0.00 0.00 0.00 0.00 0.00 0.00 0.00 0.00 0.00 0.00 0.00 0.00 0.00 0.00 0.00 0.00 0.00 0.00 0.00 0.00 0.00 0.00 0.00 0.00 0.00 0.00 0.00 0.00 0.00 0.00 0.00 0.00 0.00 0.00
0.00 0.00 0.00 0.00 0.00 0.00 0.00 0.00 0.00 0.00 0.00 0.00 0.00 0.00 0.00 0.00 0.00 0.00 0.00 0.00 0.00 0.00 0.00 0.00 0.00 0.00 0.00 0.00 0.00 0.00 0.00 0.00 0.00 0.00 0.00 0.00 0.00 0.00 0.00 0.00 0.00 0.00 0.00
0.00 0.00 0.00 0.00 0.00 0.00 0.00 0.00 0.00 0.00 0.00 0.00 0.00 0.00 0.00 0.00 0.00 0.00 0.00 0.00 0.00 0.00 0.00 0.00 0.00 0.00 0.00 0.00 0.00 0.00 0.00 0.00 0.00 0.00 0.00 0.00 0.01 0.01 0.00 0.00 0.00 0.00 0.00
0.00 0.00 0.00 0.00 0.00 0.00 0.00 0.00 0.00 0.00 0.00 0.00 0.00 0.00 0.00 0.00 0.00 0.00 0.00 0.00 0.00 0.00 0.00 0.00 0.00 0.00 0.00 0.00 0.00 0.00 0.00 0.00 0.00 0.00 0.00 0.00 0.00 0.00 0.00 0.00 0.00 0.00 0.00
0.00 0.00 0.00 0.00 0.00 0.00 0.00 0.00 0.00 0.00 0.00 0.00 0.00 0.00 0.00 0.00 0.00 0.00 0.00 0.00 0.00 0.00 0.00 0.00 0.00 0.00 0.00 0.00 0.00 0.00 0.00 0.00 0.00 0.00 0.00 0.00 0.00 0.00 0.00 0.00 0.00 0.00 0.00
0.00 0.00 0.00 0.00 0.00 0.00 0.00 0.00 0.00 0.00 0.00 0.00 0.00 0.00 0.00 0.00 0.00 0.00 0.00 0.00 0.00 0.00 0.00 0.00 0.00 0.00 0.00 0.00 0.00 0.00 0.00 0.00 0.00 0.00 0.00 0.00 0.00 0.00 0.00 0.00 0.00 0.00 0.00
0.00 0.00 0.00 0.00 0.00 0.00 0.00 0.00 0.00 0.00 0.00 0.00 0.00 0.00 0.00 0.00 0.00 0.00 0.00 0.00 0.00 0.00 0.00 0.00 0.00 0.00 0.00 0.00 0.00 0.00 0.00 0.00 0.00 0.00 0.00 0.00 0.00 0.00 0.00 0.00 0.00 0.00 0.00
0.00 0.00 0.00 0.00 0.00 0.00 0.00 0.00 0.00 0.00 0.00 0.00 0.00 0.00 0.00 0.00 0.00 0.00 0.00 0.00 0.00 0.00 0.00 0.00 0.00 0.00 0.00 0.00 0.00 0.00 0.00 0.00 0.00 0.00 0.00 0.00 0.00 0.00 0.00 0.00 0.00 0.00 0.00
0.00 0.00 0.00 0.00 0.00 0.00 0.00 0.00 0.00 0.00 0.00 0.00 0.00 0.00 0.00 0.00 0.00 0.00 0.00 0.00 0.00 0.00 0.00 0.00 0.00 0.00 0.00 0.00 0.00 0.00 0.00 0.00 0.00 0.00 0.00 0.00 0.00 0.00 0.00 0.00 0.00 0.00 0.00
MSLP
1016.33 1016.51 1016.78 1017.14 1017.42 1017.70 1018.00 1018.31 1018.61 1018.89 1019.11 1019.28 1019.40 1019.49 1019.56 1019.75 1019.89 1019.93 1019.87 1019.94 1020.12 1020.35 1020.31 1020.44 1020.48 1020.60 1020.72 1020.84 1021.01 1021.16 1021.28 1021.36 1021.40 1021.45 1021.42 1021.36 1021.27 1021.15 1021.15 1021.20 1021.13 1020.92 1021.09
1015.83 1016.38 1016.82 1017.19 1017.46 1017.73 1018.00 1018.36 1018.66 1018.98 1019.25 1019.50 1019.64 1019.71 1019.75 1019.95 1020.05 1020.08 1020.05 1020.25 1020.48 1020.74 1020.68 1020.81 1020.92 1020.99 1021.11 1021.25 1021.40 1021.52 1021.61 1021.73 1021.80 1021.87 1021.86 1021.77 1021.64 1021.52 1021.51 1021.50 1021.46 1021.39 1021.45
1015.96 1016.40 1016.85 1017.23 1017.51 1017.77 1018.08 1018.49 1018.83 1019.15 1019.39 1019.65 1019.79 1019.86 1019.99 1020.09 1020.13 1020.19 1020.38 1020.60 1020.84 1021.10 1021.05 1021.23 1021.28 1021.40 1021.53 1021.67 1021.81 1021.90 1021.97 1022.06 1022.15 1022.17 1022.11 1021.83 1021.70 1021.72 1021.65 1021.60 1021.65 1021.65 1021.63
1016.03 1016.49 1016.86 1017.31 1017.61 1017.94 1018.30 1018.64 1018.91 1019.32 1019.57 1019.81 1019.99 1020.07 1020.15 1020.20 1020.27 1020.38 1020.65 1020.92 1021.23 1021.36 1021.37 1021.57 1021.69 1021.82 1021.92 1022.04 1022.13 1022.18 1022.24 1022.36 1022.45 1022.39 1022.03 1022.01 1021.89 1021.92 1021.77 1021.45 1021.79 1021.79 1021.81
1016.07 1016.67 1017.01 1017.44 1017.77 1018.13 1018.55 1018.83 1019.16 1019.54 1019.82 1020.02 1020.15 1020.20 1020.30 1020.40 1020.42 1020.56 1020.97 1021.29 1021.55 1021.61 1021.66 1021.86 1022.01 1022.09 1022.19 1022.32 1022.38 1022.41 1022.45 1022.62 1022.69 1022.40 1022.29 1022.21 1022.24 1022.17 1022.10 1022.10 1022.05 1022.05 1021.99
1016.25 1016.82 1017.23 1017.58 1017.92 1018.32 1018.78 1019.05 1019.40 1019.73 1020.00 1020.15 1020.26 1020.20 1020.41 1020.58 1020.61 1020.89 1021.34 1021.63 1021.77 1021.78 1021.87 1022.14 1022.29 1022.33 1022.43 1022.54 1022.58 1022.53 1022.67 1022.80 1022.82 1022.69 1022.63 1022.55 1022.37 1022.49 1022.46 1022.53 1022.49 1022.38 1022.18
1016.47 1016.98 1017.36 1017.70 1018.19 1018.43 1019.01 1019.27 1019.57 1019.88 1020.12 1020.17 1020.33 1020.19 1020.40 1020.71 1020.90 1021.13 1021.60 1021.86 1021.92 1021.98 1022.15 1022.36 1022.47 1022.52 1022.64 1022.74 1022.76 1022.73 1022.90 1023.05 1022.95 1023.01 1022.96 1022.88 1022.76 1022.79 1022.88 1022.94 1022.86 1022.78 1022.70
1016.70 1017.03 1017.54 1017.91 1018.45 1018.64 1019.03 1019.46 1019.73 1020.00 1020.23 1020.37 1020.33 1020.34 1020.49 1020.87 1021.16 1021.44 1021.88 1022.07 1022.12 1022.22 1022.46 1022.62 1022.69 1022.77 1022.87 1022.92 1023.00 1023.06 1023.12 1023.26 1023.19 1023.16 1023.18 1023.10 1023.11 1023.13 1023.22 1023.20 1023.17 1023.07 1023.03
1016.90 1017.11 1017.53 1017.97 1018.58 1018.90 1019.21 1019.52 1019.82 1020.10 1020.35 1020.57 1020.60 1020.60 1020.71 1021.15 1021.42 1021.65 1022.04 1022.15 1022.25 1022.36 1022.71 1022.87 1022.88 1022.97 1023.07 1023.15 1023.20 1023.27 1023.27 1023.48 1023.21 1023.30 1023.26 1023.18 1023.22 1023.18 1023.34 1023.41 1023.43 1023.40 1023.37
1017.13 1017.22 1017.57 1017.98 1018.60 1018.97 1019.32 1019.66 1019.93 1020.17 1020.48 1020.64 1020.81 1021.01 1021.24 1021.52 1021.67 1021.80 1022.16 1022.30 1022.39 1022.53 1022.84 1022.94 1022.89 1022.94 1023.05 1023.12 1023.18 1023.24 1023.27 1023.39 1023.23 1023.37 1023.28 1023.20 1023.26 1023.20 1023.42 1023.50 1023.56 1023.58 1023.55
1017.70 1017.66 1017.83 1018.23 1018.64 1019.07 1019.41 1019.72 1020.09 1020.32 1020.52 1020.73 1020.91 1021.18 1021.48 1021.69 1021.91 1022.10 1022.37 1022.48 1022.55 1022.76 1023.02 1023.12 1023.08 1023.11 1023.27 1023.38 1023.35 1023.43 1023.48 1023.29 1023.29 1023.37 1023.34 1023.43 1023.40 1023.31 1023.44 1023.50 1023.67 1023.73 1023.78
1017.88 1018.03 1018.27 1018.76 1018.75 1019.19 1019.45 1019.80 1020.03 1020.37 1020.52 1020.75 1021.00 1021.28 1021.58 1021.85 1021.98 1022.18 1022.39 1022.56 1022.64 1022.84 1023.05 1023.15 1023.08 1023.16 1023.29 1023.34 1023.41 1023.52 1023.34 1023.46 1023.39 1023.34 1023.29 1023.43 1023.32 1023.19 1023.32 1023.48 1023.64 1023.71 1023.76
1017.99 1018.16 1018.47 1018.80 1018.87 1019.19 1019.46 1019.82 1020.07 1020.34 1020.60 1020.84 1021.18 1021.46 1021.73 1021.98 1022.12 1022.20 1022.35 1022.51 1022.65 1022.91 1022.99 1023.02 1022.99 1023.06 1023.20 1023.32 1023.43 1023.41 1023.41 1023.40 1023.34 1023.30 1023.24 1023.37 1023.25 1023.08 1023.12 1023.38 1023.57 1023.63 1023.74
1017.95 1018.15 1018.42 1018.61 1018.92 1019.17 1019.49 1019.76 1019.97 1020.25 1020.65 1020.87 1021.13 1021.39 1021.70 1021.91 1022.12 1022.19 1022.30 1022.51 1022.65 1022.79 1022.88 1022.94 1022.90 1022.96 1023.08 1023.22 1023.34 1023.33 1023.32 1023.27 1023.21 1023.17 1023.07 1023.25 1023.16 1023.04 1022.91 1023.08 1023.32 1023.44 1023.57
1017.94 1018.03 1018.18 1018.42 1018.78 1019.11 1019.42 1019.73 1019.96 1020.11 1020.39 1020.68 1021.05 1021.25 1021.48 1021.74 1021.87 1022.01 1022.13 1022.35 1022.52 1022.74 1022.80 1022.80 1022.83 1022.77 1022.85 1023.01 1023.08 1023.16 1023.09 1023.02 1023.08 1023.03 1022.96 1023.02 1023.02 1022.98 1022.87 1022.81 1023.00 1023.19 1023.39
1017.93 1017.92 1018.10 1018.26 1018.53 1018.97 1019.20 1019.52 1019.72 1019.99 1020.22 1020.60 1020.81 1021.03 1021.34 1021.49 1021.59 1021.79 1021.91 1022.12 1022.37 1022.50 1022.49 1022.51 1022.50 1022.53 1022.57 1022.72 1022.65 1022.73 1022.72 1022.72 1022.76 1022.73 1022.69 1022.55 1022.77 1022.76 1022.69 1022.64 1022.71 1022.89 1023.07
1017.83 1017.79 1018.01 1018.06 1018.26 1018.62 1018.86 1019.17 1019.48 1019.70 1020.10 1020.31 1020.53 1020.79 1021.01 1021.20 1021.27 1021.42 1021.62 1021.82 1021.92 1022.13 1022.22 1022.31 1022.30 1022.39 1022.43 1022.46 1022.30 1022.19 1022.35 1022.27 1022.27 1022.27 1022.34 1022.35 1022.32 1022.42 1022.45 1022.42 1022.40 1022.48 1022.66
1017.61 1017.47 1017.86 1017.97 1018.14 1018.31 1018.55 1018.79 1019.12 1019.50 1019.72 1019.91 1020.17 1020.46 1020.60 1020.75 1020.92 1021.12 1021.28 1021.32 1021.43 1021.72 1021.86 1021.90 1021.84 1021.97 1022.06 1022.03 1021.82 1021.71 1021.79 1021.83 1021.74 1021.76 1021.86 1021.94 1021.96 1021.90 1021.92 1022.07 1022.04 1022.06 1022.22
1017.26 1017.47 1017.67 1017.82 1017.86 1018.05 1018.25 1018.54 1018.83 1019.19 1019.52 1019.65 1019.88 1020.00 1020.06 1020.28 1020.50 1020.70 1020.80 1020.79 1021.05 1021.23 1021.34 1021.40 1021.48 1021.65 1021.49 1021.46 1021.47 1021.38 1021.39 1021.34 1021.21 1021.30 1021.19 1021.33 1021.39 1021.47 1021.42 1021.46 1021.68 1021.80 1021.96
1017.30 1017.32 1017.38 1017.58 1017.70 1017.91 1018.01 1018.44 1018.73 1019.02 1019.18 1019.27 1019.33 1019.38 1019.56 1019.75 1020.02 1020.29 1020.34 1020.41 1020.62 1020.71 1020.77 1020.88 1021.01 1021.15 1021.13 1021.08 1021.23 1021.09 1020.90 1020.77 1020.84 1020.81 1020.58 1020.69 1020.80 1020.91 1021.01 1021.14 1021.22 1021.31 1021.60
1017.41 1017.38 1017.19 1017.40 1017.48 1017.75 1018.06 1018.34 1018.62 1018.55 1018.68 1018.81 1018.81 1018.90 1019.04 1019.27 1019.53 1019.80 1019.90 1019.99 1020.24 1020.35 1020.28 1020.44 1020.64 1020.73 1020.70 1020.94 1021.25 1020.66 1020.37 1020.24 1020.17 1020.11 1020.08 1020.19 1020.31 1020.51 1020.66 1020.85 1021.01 1021.07 1021.05
1017.30 1017.53 1017.43 1017.35 1017.44 1017.55 1017.72 1017.94 1018.15 1018.26 1018.31 1018.28 1018.36 1018.59 1018.80 1018.99 1019.16 1019.32 1019.45 1019.54 1019.65 1019.87 1019.94 1020.01 1020.24 1020.27 1020.39 1020.56 1020.61 1020.90 1020.29 1019.87 1019.79 1019.83 1020.07 1020.14 1020.07 1020.22 1020.27 1020.49 1020.56 1020.61 1020.65
1017.34 1017.58 1017.47 1017.65 1017.73 1017.79 1017.90 1018.09 1018.35 1018.51 1018.67 1018.65 1018.71 1018.78 1018.92 1019.06 1019.08 1019.13 1019.14 1019.15 1019.14 1019.33 1019.42 1019.54 1019.75 1019.91 1019.85 1020.16 1020.31 1020.27 1020.34 1019.97 1020.01 1019.84 1019.81 1019.95 1020.00 1020.07 1020.04 1020.23 1020.24 1020.24 1020.31
1017.54 1017.78 1017.72 1017.90 1018.04 1018.16 1018.19 1018.30 1018.35 1018.55 1018.81 1019.04 1019.15 1019.18 1019.23 1019.29 1019.23 1019.25 1019.22 1019.11 1019.00 1018.99 1019.13 1019.20 1019.33 1019.37 1019.52 1019.58 1020.10 1020.16 1020.14 1020.32 1020.26 1019.98 1019.90 1019.74 1020.05 1020.13 1020.19 1020.24 1020.15 1019.98 1019.98
1017.81 1018.00 1018.07 1018.17 1018.26 1018.40 1018.39 1018.54 1018.71 1018.90 1019.18 1019.33 1019.35 1019.33 1019.38 1019.41 1019.44 1019.50 1019.47 1019.39 1019.22 1019.17 1019.09 1019.03 1019.03 1019.06 1019.05 1019.02 1019.19 1019.53 1019.80 1020.18 1020.42 1020.58 1020.11 1020.10 1020.10 1019.87 1019.99 1019.87 1019.99 1019.99 1020.11
1017.98 1018.22 1018.23 1018.38 1018.61 1018.67 1018.70 1018.84 1018.98 1019.18 1019.43 1019.55 1019.58 1019.53 1019.65 1019.77 1019.76 1019.80 1019.73 1019.61 1019.46 1019.21 1019.07 1018.85 1018.70 1018.70 1018.68 1018.64 1018.60 1018.83 1018.96 1019.28 1019.70 1020.10 1020.21 1020.25 1020.21 1020.00 1019.89 1019.82 1019.94 1020.03 1020.14
Thickness
5759 5759 5759 5757 5757 5755 5753 5751 5749 5747 5746 5745 5745 5745 5744 5742 5741 5740 5741 5738 5735 5733 5734 5732 5732 5730 5728 5726 5723 5721 5719 5717 5716 5714 5713 5713 5712 5711 5709 5707 5706 5706 5704
5762 5758 5757 5755 5755 5754 5752 5750 5748 5746 5745 5743 5742 5742 5742 5740 5739 5738 5738 5736 5733 5729 5730 5728 5727 5725 5724 5721 5719 5717 5715 5713 5711 5710 5709 5708 5707 5706 5704 5703 5702 5700 5699
5759 5756 5754 5753 5753 5752 5750 5748 5746 5744 5742 5741 5740 5740 5739 5738 5737 5736 5734 5732 5729 5725 5726 5724 5723 5720 5719 5717 5715 5713 5711 5709 5707 5706 5705 5704 5704 5702 5701 5700 5698 5696 5695
5757 5754 5752 5751 5750 5749 5747 5746 5744 5741 5740 5739 5738 5737 5736 5736 5734 5733 5731 5727 5724 5722 5723 5720 5718 5716 5714 5712 5710 5709 5707 5705 5703 5703 5703 5701 5700 5698 5697 5698 5694 5693 5691
5755 5751 5750 5748 5746 5745 5743 5742 5741 5738 5737 5736 5735 5735 5733 5732 5732 5731 5726 5723 5720 5719 5719 5716 5714 5712 5710 5709 5707 5705 5704 5701 5699 5699 5698 5697 5696 5694 5693 5691 5689 5688 5687
5752 5749 5747 5745 5743 5741 5739 5739 5737 5736 5734 5734 5733 5733 5731 5729 5729 5726 5721 5719 5717 5717 5716 5712 5710 5709 5707 5705 5703 5702 5700 5698 5696 5695 5693 5692 5691 5689 5688 5685 5684 5683 5683
5747 5745 5744 5742 5739 5739 5735 5735 5734 5732 5731 5732 5731 5731 5729 5726 5724 5722 5717 5715 5715 5715 5712 5708 5707 5706 5703 5701 5700 5699 5696 5694 5692 5690 5688 5687 5685 5684 5681 5679 5678 5677 5675
5742 5741 5739 5739 5735 5735 5734 5732 5730 5729 5727 5727 5728 5728 5727 5723 5720 5717 5713 5712 5712 5711 5707 5704 5703 5701 5700 5698 5695 5694 5692 5690 5688 5686 5684 5683 5681 5678 5676 5674 5672 5671 5669
5735 5737 5736 5735 5732 5731 5730 5729 5728 5727 5725 5723 5723 5723 5721 5718 5715 5714 5710 5710 5709 5708 5703 5700 5700 5698 5695 5693 5692 5690 5689 5686 5684 5682 5681 5679 5677 5676 5673 5670 5667 5666 5664
5730 5732 5732 5731 5728 5727 5726 5725 5725 5724 5723 5721 5720 5718 5716 5712 5711 5711 5708 5707 5706 5704 5699 5697 5698 5696 5693 5692 5690 5689 5686 5684 5682 5679 5678 5676 5674 5671 5668 5666 5663 5661 5660
5722 5726 5725 5725 5724 5722 5722 5721 5720 5720 5720 5719 5717 5715 5712 5710 5708 5706 5704 5703 5702 5699 5695 5694 5694 5693 5690 5688 5686 5684 5683 5681 5678 5675 5674 5672 5669 5667 5664 5663 5659 5656 5654
5712 5717 5717 5716 5718 5718 5718 5716 5717 5716 5716 5714 5713 5711 5708 5706 5705 5703 5702 5700 5699 5696 5692 5691 5691 5689 5688 5685 5683 5680 5678 5676 5674 5672 5671 5669 5667 5665 5662 5659 5655 5653 5650
5708 5712 5713 5712 5714 5714 5714 5713 5713 5712 5711 5710 5708 5706 5704 5702 5701 5700 5699 5697 5695 5692 5690 5688 5688 5686 5684 5682 5678 5676 5675 5673 5671 5669 5667 5665 5663 5661 5659 5655 5651 5649 5646
5703 5708 5710 5709 5709 5710 5709 5709 5709 5708 5706 5706 5704 5703 5701 5699 5698 5697 5696 5694 5692 5689 5687 5685 5684 5683 5680 5678 5675 5673 5672 5670 5667 5666 5665 5662 5659 5656 5654 5651 5647 5645 5642
5701 5704 5706 5705 5704 5705 5705 5704 5704 5704 5704 5703 5701 5700 5699 5697 5695 5694 5693 5691 5689 5686 5684 5682 5681 5679 5677 5675 5672 5670 5669 5667 5664 5662 5660 5659 5655 5652 5650 5648 5644 5640 5637
5695 5698 5701 5702 5702 5701 5701 5700 5701 5701 5700 5698 5698 5697 5695 5694 5693 5692 5691 5688 5686 5683 5682 5680 5679 5677 5675 5672 5670 5668 5665 5663 5660 5659 5657 5655 5651 5648 5646 5643 5640 5637 5633
5688 5693 5695 5698 5698 5698 5699 5699 5698 5698 5697 5696 5695 5694 5693 5691 5691 5690 5688 5686 5684 5681 5680 5677 5676 5674 5671 5669 5668 5666 5662 5660 5658 5656 5653 5650 5647 5645 5641 5638 5636 5633 5629
5686 5689 5691 5693 5695 5695 5696 5697 5696 5695 5695 5694 5693 5691 5690 5689 5689 5688 5685 5684 5682 5679 5677 5675 5674 5672 5669 5667 5666 5664 5660 5657 5655 5653 5649 5645 5643 5640 5638 5634 5631 5628 5623
5683 5685 5686 5690 5692 5693 5693 5693 5693 5692 5691 5691 5689 5689 5690 5689 5687 5685 5683 5681 5679 5677 5675 5673 5671 5668 5667 5665 5663 5661 5657 5655 5652 5649 5646 5642 5640 5637 5633 5630 5626 5621 5617
5677 5681 5684 5686 5688 5688 5689 5688 5688 5687 5687 5687 5688 5688 5687 5687 5685 5682 5681 5679 5676 5674 5673 5671 5669 5666 5664 5663 5658 5657 5655 5652 5649 5646 5644 5640 5637 5633 5629 5624 5620 5616 5612
5670 5674 5680 5681 5683 5684 5684 5683 5682 5684 5685 5685 5685 5684 5684 5683 5681 5679 5678 5676 5672 5671 5671 5669 5665 5662 5661 5656 5651 5655 5654 5651 5648 5644 5641 5637 5633 5628 5623 5618 5614 5610 5608
5663 5664 5670 5675 5677 5678 5680 5680 5680 5681 5682 5682 5681 5680 5679 5677 5676 5675 5674 5672 5670 5669 5667 5665 5660 5658 5655 5651 5648 5641 5645 5650 5644 5639 5633 5629 5626 5622 5618 5613 5609 5606 5603
5653 5655 5660 5663 5666 5668 5669 5669 5669 5669 5670 5671 5672 5672 5670 5669 5669 5668 5668 5667 5666 5665 5664 5661 5656 5653 5651 5647 5642 5641 5633 5638 5634 5632 5628 5622 5618 5615 5612 5607 5604 5601 5597
5643 5645 5649 5651 5653 5656 5659 5661 5662 5662 5661 5660 5660 5660 5661 5661 5662 5661 5661 5661 5661 5660 5658 5655 5652 5650 5646 5644 5636 5632 5629 5625 5623 5623 5622 5617 5610 5606 5601 5598 5596 5593 5590
5631 5633 5636 5639 5642 5644 5647 5650 5651 5650 5649 5649 5651 5652 5652 5653 5652 5652 5651 5651 5651 5650 5648 5647 5645 5642 5640 5639 5635 5628 5622 5615 5610 5606 5608 5606 5602 5600 5594 5591 5587 5583 5578
5621 5622 5627 5629 5629 5631 5634 5636 5638 5639 5638 5639 5640 5641 5641 5640 5640 5639 5639 5639 5639 5639 5638 5638 5637 5635 5633 5632 5630 5624 5621 5615 5609 5599 5595 5593 5591 5592 5587 5583 5579 5574 5568